Wind_Speed
26 26 26 24 21 19 18 21 24 24 17 17 17 18 16 15 14 11 10 12 10 10 9 7 8 10 12 13 14 15 15 15 14 13 12 11 13 13 13 13 12 12 13 12 11 10 9 8 8
31 29 29 27 24 19 20 23 26 26 20 17 19 22 18 15 16 12 12 11 11 10 9 10 11 12 13 15 16 17 17 16 15 14 14 13 13 14 13 13 13 13 14 14 13 12 11 10 10
33 33 32 30 26 20 23 23 28 32 22 21 21 25 17 20 16 16 12 12 11 11 10 12 13 14 16 18 18 18 18 17 17 15 15 14 14 14 14 14 14 14 14 14 14 13 13 12 12
34 35 35 34 26 21 25 27 29 17 26 20 23 25 20 19 20 17 14 12 15 12 13 13 15 18 20 21 21 21 20 19 19 17 17 16 15 15 15 16 15 15 15 15 15 14 14 14 13
35 36 36 34 27 24 24 26 29 19 27 24 27 23 22 21 21 19 17 15 17 14 14 15 17 19 19 18 20 21 21 21 21 21 20 19 17 17 16 15 16 16 15 16 15 15 15 15 14
37 36 37 33 29 29 28 27 30 34 34 28 45 23 21 21 22 21 18 18 18 17 16 18 19 19 20 20 20 20 20 19 19 19 20 17 15 14 14 13 14 15 15 16 16 16 16 16 16
37 37 36 34 30 29 28 33 32 30 34 32 41 28 21 22 23 21 20 20 20 20 19 20 21 20 19 19 18 17 16 17 16 16 14 12 11 12 12 13 14 16 16 17 17 17 18 18 18
39 40 39 35 30 26 27 35 38 36 35 30 30 30 21 22 23 24 21 21 22 21 22 20 19 18 15 14 13 12 12 12 12 12 11 12 14 14 15 15 15 16 17 17 18 18 19 20 20
42 43 38 34 33 26 25 33 40 42 38 48 28 25 22 24 24 24 24 23 23 22 22 20 18 17 15 13 12 13 13 14 15 15 15 17 18 18 18 17 17 17 17 18 19 19 20 21 21
41 41 38 37 38 35 32 38 42 47 42 21 28 22 24 25 26 25 26 26 24 23 21 19 18 17 17 16 14 15 15 15 16 16 17 18 19 19 19 18 17 17 17 17 17 17 18 19 19
39 39 42 42 43 41 38 38 43 44 46 42 35 35 37 23 27 27 27 28 27 22 23 20 20 19 18 17 16 17 18 18 17 17 18 20 21 20 19 19 18 17 17 18 18 18 19 19 19
35 38 41 43 45 48 46 42 43 44 45 42 33 31 33 31 30 29 28 27 26 23 24 22 21 21 19 17 16 17 18 21 20 19 20 20 22 24 25 24 22 19 19 18 18 18 19 20 20
32 33 37 40 43 44 47 50 46 43 45 43 38 51 25 26 31 32 30 28 26 26 29 26 23 18 21 22 18 21 21 23 25 24 24 23 24 24 25 24 23 22 20 19 20 21 21 21 22
31 33 35 36 39 42 44 46 49 44 49 46 41 34 32 30 33 38 27 28 29 29 32 31 27 21 21 22 24 21 24 26 26 25 26 23 21 22 23 24 22 21 18 19 19 20 21 22 23
27 29 34 36 38 40 42 45 43 47 47 47 43 44 43 35 37 30 26 31 30 31 33 32 30 24 25 26 27 24 28 29 28 25 23 22 20 20 24 26 27 25 19 20 23 25 25 27 28
27 29 32 34 39 40 47 43 40 43 45 47 46 43 44 38 36 31 32 33 29 33 32 34 31 27 28 31 30 27 28 29 29 26 24 24 24 23 24 28 22 18 22 25 25 29 29 29 30
31 31 32 34 39 45 48 47 45 44 45 46 49 45 45 44 37 37 34 39 35 34 34 35 32 30 31 31 29 24 23 25 29 27 24 17 17 20 19 19 19 23 27 28 29 31 33 32 33
37 40 41 41 41 46 45 50 48 47 47 47 43 48 49 47 40 40 41 41 42 39 37 37 36 37 36 25 26 28 26 28 25 25 18 14 18 22 23 24 24 30 30 32 33 35 36 36 37
35 36 37 38 41 46 48 48 48 47 48 47 46 48 50 49 43 41 43 43 41 41 30 46 32 44 24 23 18 22 24 24 31 24 20 18 21 26 28 29 31 32 33 34 36 36 37 37 38
31 32 33 31 34 42 44 48 45 44 44 47 46 45 47 45 46 46 46 44 41 42 41 34 40 30 22 25 22 21 21 30 32 26 24 22 26 29 29 31 33 34 35 37 38 39 38 38 38
22 28 29 33 34 37 39 45 46 42 43 42 46 44 47 47 46 48 52 46 42 42 39 38 33 32 32 32 26 28 23 32 32 22 27 27 28 30 32 33 34 35 36 37 37 37 39 41 41
22 25 25 24 28 27 29 39 39 38 40 41 39 46 47 44 45 52 40 41 43 38 37 37 33 30 35 28 28 30 28 38 27 25 27 27 29 32 33 35 35 35 36 37 39 40 41 41 39
29 27 27 28 21 21 17 30 29 35 36 38 37 45 46 45 44 40 45 41 43 40 42 37 38 33 35 30 30 35 38 36 20 27 30 30 32 33 36 35 37 38 39 40 41 43 42 40 43
31 30 31 31 25 11 9 18 19 28 28 32 34 43 46 43 41 41 39 39 41 39 34 31 33 35 38 36 35 38 29 27 29 34 34 33 34 37 36 38 41 41 43 44 45 44 44 47 50
31 37 40 33 15 11 1 8 14 24 30 30 27 36 43 36 33 37 33 34 38 35 32 33 36 36 39 38 31 30 35 34 34 33 35 37 39 38 41 43 43 46 48 48 46 48 51 55 59
35 41 44 25 27 19 11 13 16 26 22 25 26 35 37 35 35 33 34 34 33 33 32 33 31 37 26 30 35 33 37 37 35 36 38 39 41 43 45 46 49 50 50 50 53 56 60 63 66
28 36 37 23 20 26 28 28 15 17 18 17 26 35 37 28 26 32 34 30 32 32 33 31 34 37 36 35 33 33 34 37 36 38 40 43 43 47 49 52 51 51 53 57 60 63 66 67 70
27 19 33 20 14 19 24 23 24 20 13 16 17 24 25 27 29 27 28 28 30 29 30 32 36 36 34 31 31 34 36 37 40 41 45 44 48 51 53 53 55 58 61 65 67 69 71 72 73
18 21 27 25 17 12 16 20 18 18 11 8 12 8 10 15 18 23 25 26 28 29 29 30 28 28 28 31 32 34 37 40 43 44 45 49 53 55 55 59 63 66 69 71 72 74 75 75 76
19 18 17 20 21 14 13 13 13 13 11 9 3 2 2 8 14 16 18 19 19 19 20 21 24 26 28 30 33 37 40 41 43 46 50 52 55 57 61 65 68 71 73 74 75 75 75 76 76
Wind_Direction
252 250 249 245 245 243 242 248 248 252 245 243 249 251 249 251 255 261 262 265 259 269 271 270 280 291 296 299 300 301 304 301 299 299 294 287 274 272 271 273 271 264 263 265 267 267 272 283 294
255 250 249 244 245 242 241 244 255 253 249 252 249 250 248 261 254 255 253 254 254 260 265 277 283 285 290 295 298 298 296 296 292 292 292 288 284 275 271 272 272 270 268 267 267 267 270 275 283
254 253 249 247 243 240 245 247 255 259 250 246 247 254 252 252 255 250 249 250 248 243 260 276 283 290 295 296 295 294 294 290 287 286 287 289 286 280 272 268 268 268 269 269 271 270 268 270 275
250 252 251 248 241 235 243 246 247 246 262 251 249 256 254 251 252 249 238 235 249 252 261 270 284 292 296 298 296 291 286 285 284 283 283 282 282 280 276 266 262 263 263 265 267 265 266 266 271
250 250 249 250 244 234 239 247 252 261 238 257 250 246 254 247 248 246 238 234 242 248 256 270 283 291 295 298 301 294 287 281 279 281 280 280 278 274 269 264 263 262 262 259 260 262 261 266 268
251 251 249 250 242 234 231 237 245 243 249 255 257 243 242 241 246 245 241 236 239 248 261 271 279 286 288 291 294 296 286 284 284 283 282 282 279 272 274 267 264 266 266 265 267 269 268 268 270
250 250 251 247 242 234 233 237 236 249 252 252 235 235 230 231 234 235 235 240 249 256 264 273 278 281 284 285 286 291 289 283 282 283 286 279 279 284 282 275 271 270 269 269 270 271 272 272 272
248 249 247 248 246 235 234 240 242 247 257 260 231 232 218 232 230 233 237 243 251 259 270 273 276 275 275 279 281 284 293 295 293 287 284 279 282 284 280 279 275 272 269 266 267 268 269 271 273
248 247 248 249 249 240 227 239 240 238 234 243 236 229 214 237 236 234 237 242 255 264 268 272 271 268 266 265 273 284 290 294 292 288 281 283 283 287 284 281 281 280 278 274 271 269 270 271 274
248 250 251 246 246 241 229 236 238 240 241 249 245 252 240 215 233 235 239 246 254 260 266 270 265 263 264 269 278 283 284 285 284 285 284 282 284 283 280 279 278 277 276 275 275 274 274 274 275
249 245 246 246 247 245 239 234 246 248 243 255 258 237 234 240 231 238 240 245 252 255 263 266 268 265 267 269 277 285 285 284 287 286 286 286 285 281 277 280 278 275 274 276 276 277 277 277 278
250 248 246 244 242 241 247 239 239 248 254 254 255 236 227 235 235 239 241 246 250 256 261 265 268 272 270 269 277 282 285 281 280 284 282 282 282 279 276 278 274 272 275 281 282 280 280 283 285
253 250 249 247 246 244 240 245 248 245 253 256 257 251 232 227 244 238 241 247 253 257 260 264 264 269 272 271 270 273 279 280 280 284 283 280 281 281 276 273 271 273 276 285 286 287 286 285 286
253 253 251 251 249 244 244 243 242 244 248 250 252 248 240 242 254 248 233 252 255 259 264 264 267 267 272 275 276 272 278 284 286 289 282 280 280 280 275 270 272 267 277 288 289 288 289 289 291
263 259 258 255 252 249 249 238 240 237 244 248 243 241 248 241 246 248 251 248 256 256 261 269 270 278 285 281 278 278 284 288 290 282 281 288 282 286 279 269 272 260 282 287 289 293 292 293 292
270 269 262 257 258 251 250 236 237 242 242 243 245 242 245 244 247 248 251 259 246 253 254 264 271 279 287 273 280 280 287 290 278 275 277 284 283 276 289 274 257 265 279 283 286 289 291 291 291
271 270 268 261 258 254 250 238 233 239 240 239 243 240 241 244 241 243 247 253 254 254 257 259 268 271 278 272 276 289 282 275 289 273 277 279 281 280 297 298 288 278 276 279 280 287 294 293 291
274 269 267 265 258 259 256 250 244 237 237 237 237 240 237 239 241 245 244 247 254 257 257 262 263 266 262 261 276 281 289 290 274 262 264 266 288 294 295 290 281 277 284 287 288 290 290 289 289
290 285 280 269 260 255 253 247 246 241 239 237 236 237 239 235 239 245 246 246 247 255 262 257 258 278 283 260 277 297 294 279 286 261 267 277 292 292 288 289 289 287 288 288 288 288 287 288 288
303 297 287 278 269 258 250 248 246 249 238 235 236 233 237 237 233 242 245 247 245 251 258 270 274 279 259 290 299 289 282 275 276 303 289 289 288 287 286 288 286 285 286 286 287 286 287 286 284
318 308 297 287 279 269 259 248 245 245 245 231 230 230 232 234 229 235 235 242 247 248 259 269 277 274 281 274 285 289 280 275 278 285 289 287 286 286 286 285 284 283 286 287 288 287 286 286 286
348 333 327 309 298 283 264 251 237 238 242 238 226 228 230 232 232 237 247 237 245 253 262 263 264 261 258 278 280 279 276 266 268 290 285 285 285 287 286 284 284 289 289 288 287 287 287 286 284
343 335 309 314 311 296 263 258 223 226 229 234 225 221 228 229 232 233 238 240 245 250 254 258 254 251 270 275 271 272 274 271 292 293 291 292 291 287 289 288 290 291 290 290 289 288 286 284 283
14 9 358 355 344 326 230 237 202 215 221 225 229 218 224 231 235 232 230 233 239 241 242 252 287 278 277 272 262 273 275 287 303 294 290 292 292 292 292 291 291 292 293 293 291 288 286 286 287
14 13 8 4 4 346 5 259 187 196 214 214 215 209 214 225 237 239 234 232 239 243 251 256 263 267 266 268 273 285 289 298 291 288 291 296 295 293 291 291 292 295 295 293 291 290 291 291 290
19 25 19 28 37 43 18 85 172 206 210 189 169 193 202 218 228 232 232 235 241 243 247 255 258 265 273 281 288 287 289 290 288 291 293 294 293 291 293 294 295 295 294 293 293 292 292 292 292
33 35 38 65 66 62 64 67 76 209 198 182 186 194 193 203 208 224 230 228 236 237 242 247 255 265 275 281 277 278 283 285 288 291 292 291 290 294 295 295 295 294 293 292 292 292 293 294 294
38 38 33 26 36 45 68 77 72 156 195 213 175 189 196 200 207 211 216 225 236 244 248 254 258 265 274 279 280 281 285 288 291 290 291 292 292 293 294 295 295 294 294 294 294 295 295 295 294
34 44 41 32 28 39 70 78 74 71 97 165 150 173 186 169 182 204 218 225 235 243 250 257 265 270 272 275 279 283 285 286 288 292 291 292 295 297 297 296 296 296 296 296 295 295 294 294 294
32 24 37 39 35 29 26 73 85 79 54 54 15 34 150 182 195 208 221 231 240 247 252 257 260 265 272 277 280 282 284 289 292 294 294 294 295 295 295 295 295 295 295 294 293 293 293 294 296
Height
5875 5877 5879 5880 5885 5884 5883 5884 5882 5882 5884 5885 5886 5886 5888 5889 5889 5894 5893 5893 5893 5894 5894 5893 5894 5894 5895 5895 5894 5894 5894 5893 5893 5892 5891 5890 5890 5890 5890 5890 5890 5890 5890 5890 5889 5889 5888 5888 5887
5869 5870 5873 5875 5878 5881 5880 5877 5879 5878 5881 5883 5882 5881 5885 5886 5887 5888 5890 5889 5890 5891 5892 5892 5892 5892 5892 5892 5891 5891 5891 5891 5890 5890 5889 5888 5888 5888 5887 5887 5888 5887 5888 5888 5888 5887 5887 5886 5886
5862 5864 5866 5869 5872 5878 5876 5875 5874 5875 5876 5877 5878 5878 5882 5881 5883 5884 5886 5887 5887 5887 5889 5890 5890 5889 5889 5888 5888 5888 5888 5888 5888 5887 5886 5886 5885 5884 5884 5884 5884 5884 5885 5885 5885 5885 5885 5885 5884
5855 5857 5860 5862 5868 5872 5872 5871 5868 5869 5870 5872 5874 5875 5879 5879 5879 5881 5883 5883 5882 5885 5885 5886 5887 5887 5886 5885 5885 5884 5884 5884 5884 5884 5883 5883 5883 5881 5880 5880 5880 5881 5881 5881 5881 5881 5882 5882 5882
5848 5850 5852 5856 5863 5867 5866 5866 5865 5866 5868 5869 5866 5871 5875 5875 5874 5877 5879 5880 5880 5881 5881 5882 5883 5884 5883 5882 5881 5880 5880 5879 5879 5879 5879 5879 5879 5878 5877 5876 5877 5877 5877 5877 5878 5878 5878 5879 5879
5841 5843 5845 5850 5856 5859 5860 5860 5856 5856 5860 5863 5861 5866 5869 5870 5872 5873 5876 5876 5876 5877 5877 5878 5879 5879 5880 5879 5878 5877 5876 5875 5875 5874 5874 5875 5875 5875 5875 5874 5874 5874 5875 5875 5875 5875 5876 5876 5876
5834 5836 5839 5843 5848 5851 5854 5853 5851 5851 5851 5855 5850 5858 5864 5864 5865 5869 5872 5872 5872 5874 5873 5874 5875 5874 5875 5875 5875 5874 5873 5872 5871 5871 5870 5871 5870 5871 5871 5871 5871 5871 5871 5871 5872 5872 5872 5872 5872
5826 5827 5832 5836 5841 5848 5848 5845 5845 5844 5843 5845 5847 5850 5859 5860 5861 5863 5867 5868 5868 5869 5870 5870 5870 5870 5870 5871 5871 5870 5869 5869 5869 5868 5868 5867 5868 5868 5868 5867 5867 5868 5867 5867 5868 5868 5868 5868 5868
5816 5818 5827 5831 5834 5841 5840 5838 5833 5836 5839 5839 5839 5840 5850 5856 5857 5858 5861 5863 5864 5865 5866 5866 5866 5866 5866 5866 5867 5867 5866 5867 5866 5866 5865 5865 5865 5865 5864 5864 5864 5864 5864 5864 5864 5864 5864 5864 5864
5807 5813 5818 5823 5825 5826 5831 5827 5829 5831 5832 5830 5832 5835 5839 5843 5850 5853 5856 5858 5861 5861 5861 5862 5862 5862 5862 5862 5864 5863 5863 5863 5863 5863 5862 5861 5862 5861 5861 5861 5860 5860 5859 5859 5859 5859 5860 5860 5860
5801 5807 5808 5811 5814 5816 5820 5822 5820 5823 5825 5827 5831 5836 5839 5837 5843 5847 5849 5852 5855 5857 5856 5857 5858 5859 5859 5859 5860 5860 5859 5860 5859 5859 5858 5856 5857 5857 5857 5857 5856 5856 5856 5855 5855 5855 5856 5855 5855
5793 5795 5797 5799 5803 5807 5811 5813 5816 5816 5818 5823 5828 5824 5828 5831 5835 5840 5843 5845 5848 5852 5852 5853 5854 5854 5856 5856 5856 5856 5855 5855 5855 5855 5855 5854 5853 5853 5853 5853 5853 5852 5852 5851 5851 5851 5851 5851 5851
5784 5786 5787 5789 5793 5798 5800 5804 5809 5814 5810 5810 5817 5816 5810 5823 5830 5833 5835 5839 5841 5845 5846 5850 5851 5853 5853 5852 5852 5850 5851 5851 5850 5850 5849 5848 5847 5847 5847 5848 5848 5847 5847 5846 5846 5846 5846 5846 5846
5775 5777 5780 5781 5784 5787 5789 5793 5798 5809 5802 5804 5806 5812 5815 5820 5825 5824 5828 5834 5837 5838 5839 5843 5845 5849 5849 5849 5846 5846 5844 5844 5845 5844 5843 5843 5842 5841 5841 5842 5842 5842 5842 5841 5841 5840 5840 5839 5839
5767 5769 5770 5773 5774 5776 5774 5781 5794 5793 5792 5794 5802 5805 5808 5813 5818 5823 5823 5829 5833 5833 5832 5834 5837 5841 5842 5843 5842 5840 5839 5839 5838 5838 5837 5836 5835 5835 5835 5835 5836 5836 5836 5835 5834 5834 5833 5833 5832
5759 5760 5761 5761 5762 5765 5760 5777 5781 5778 5781 5786 5790 5798 5799 5805 5808 5814 5816 5820 5826 5827 5827 5828 5832 5835 5835 5834 5835 5834 5833 5831 5831 5831 5830 5830 5829 5829 5829 5827 5828 5829 5831 5829 5828 5827 5826 5825 5825
5750 5750 5750 5753 5753 5749 5747 5762 5766 5766 5770 5778 5780 5789 5793 5796 5803 5808 5814 5815 5818 5821 5822 5823 5826 5829 5828 5827 5829 5828 5827 5827 5827 5826 5824 5824 5824 5824 5823 5822 5823 5823 5823 5822 5821 5820 5819 5818 5816
5742 5740 5740 5740 5744 5737 5739 5745 5753 5756 5759 5766 5772 5776 5786 5790 5798 5802 5808 5809 5810 5814 5817 5817 5818 5821 5820 5822 5823 5823 5823 5822 5820 5820 5819 5818 5818 5818 5818 5819 5818 5817 5816 5814 5813 5811 5810 5810 5809
5729 5727 5725 5726 5726 5720 5725 5730 5735 5745 5750 5756 5762 5768 5775 5788 5792 5796 5798 5802 5806 5805 5809 5811 5814 5815 5817 5816 5817 5818 5817 5816 5815 5813 5812 5812 5812 5813 5812 5812 5811 5810 5808 5806 5805 5803 5801 5799 5798
5721 5718 5715 5715 5712 5706 5711 5714 5723 5728 5738 5746 5752 5760 5765 5775 5783 5786 5789 5792 5798 5799 5804 5807 5809 5811 5809 5810 5809 5810 5810 5809 5809 5806 5807 5807 5807 5807 5805 5805 5803 5802 5800 5798 5796 5795 5793 5790 5789
5716 5709 5705 5703 5699 5696 5698 5700 5709 5718 5723 5734 5742 5751 5756 5763 5775 5778 5775 5781 5787 5794 5801 5803 5802 5804 5805 5806 5804 5804 5804 5803 5801 5802 5803 5801 5800 5799 5798 5796 5795 5793 5790 5789 5788 5785 5782 5780 5777
5712 5706 5698 5693 5688 5686 5684 5686 5696 5706 5713 5723 5735 5742 5748 5756 5765 5766 5764 5773 5781 5789 5791 5794 5797 5797 5799 5799 5798 5797 5797 5794 5791 5794 5794 5794 5792 5790 5789 5788 5787 5784 5782 5779 5776 5774 5771 5768 5765
5707 5700 5693 5687 5680 5676 5677 5675 5690 5694 5702 5710 5722 5731 5740 5747 5756 5765 5773 5774 5775 5781 5783 5787 5787 5790 5789 5789 5791 5792 5790 5788 5784 5785 5786 5786 5784 5782 5780 5779 5776 5774 5772 5768 5765 5762 5759 5757 5755
5704 5698 5691 5683 5676 5672 5668 5669 5680 5687 5696 5704 5713 5724 5731 5740 5748 5758 5767 5768 5770 5776 5777 5772 5775 5779 5780 5782 5783 5783 5778 5777 5778 5778 5778 5777 5775 5772 5770 5768 5765 5763 5759 5756 5752 5749 5746 5744 5741
5705 5698 5688 5684 5676 5672 5669 5670 5677 5684 5690 5695 5705 5717 5727 5735 5743 5748 5756 5763 5765 5769 5773 5775 5776 5775 5774 5774 5773 5773 5773 5772 5773 5771 5770 5767 5765 5762 5760 5757 5754 5751 5747 5743 5739 5736 5732 5728 5724
5706 5698 5690 5686 5680 5676 5676 5676 5679 5682 5689 5694 5703 5710 5721 5731 5739 5743 5747 5755 5761 5764 5768 5769 5771 5768 5765 5766 5768 5767 5767 5767 5765 5763 5761 5759 5755 5752 5749 5746 5742 5738 5733 5729 5726 5721 5716 5712 5707
5709 5704 5701 5694 5689 5687 5684 5683 5684 5686 5690 5694 5701 5705 5718 5725 5732 5739 5745 5751 5754 5759 5761 5763 5763 5762 5762 5763 5761 5761 5761 5758 5756 5754 5752 5749 5746 5742 5737 5733 5729 5725 5720 5716 5711 5706 5700 5694 5688
5713 5711 5706 5701 5698 5692 5693 5690 5689 5692 5694 5695 5705 5709 5717 5725 5729 5735 5740 5745 5749 5752 5755 5755 5757 5757 5756 5756 5754 5753 5751 5750 5747 5745 5742 5738 5734 5730 5725 5720 5715 5710 5705 5699 5693 5687 5681 5675 5668
5718 5714 5711 5707 5705 5702 5702 5698 5696 5700 5701 5702 5701 5705 5709 5717 5723 5732 5738 5741 5743 5746 5749 5750 5750 5750 5750 5748 5747 5746 5744 5742 5739 5735 5731 5727 5721 5715 5710 5704 5699 5693 5687 5680 5673 5667 5661 5654 5648
5718 5717 5715 5713 5711 5707 5706 5708 5705 5705 5706 5708 5709 5712 5717 5722 5728 5732 5735 5738 5740 5743 5744 5745 5745 5745 5744 5743 5742 5739 5736 5734 5730 5726 5720 5715 5709 5703 5697 5691 5684 5677 5669 5662 5655 5649 5642 5635 5627